Time,TemperatureF,DewpointF,PressureIn,WindDirection,WindDirectionDegrees,WindSpeedMPH,WindSpeedGustMPH,Humidity,HourlyPrecipIn,Conditions,Clouds,dailyrainin,SolarRadiationWatts/m^2,SoftwareType,DateUTC
2013-06-12 00:00:00,65.0,65.0,-100.00,SE,135,1.0,-999.0,97,-99.99,,,-99.99,0.000000,,2013-06-12 04:00:00,
2013-06-12 00:34:00,65.0,65.0,-100.00,SE,135,1.0,-999.0,97,-99.99,,,-99.99,0.000000,,2013-06-12 04:34:00,
2013-06-12 00:42:00,65.0,65.0,-100.00,SE,135,1.0,-999.0,97,-99.99,,,-99.99,0.000000,,2013-06-12 04:42:00,
2013-06-12 00:53:00,65.0,65.0,-100.00,SE,135,1.0,-999.0,97,-99.99,,,-99.99,0.000000,,2013-06-12 04:53:00,
2013-06-12 01:00:00,67.0,63.0,-100.00,SSE,157,1.0,-999.0,88,-99.99,,,-99.99,0.000000,,2013-06-12 05:00:00,
2013-06-12 01:32:00,67.0,63.0,-100.00,SSE,157,1.0,-999.0,88,-99.99,,,-99.99,0.000000,,2013-06-12 05:32:00,
2013-06-12 01:42:00,67.0,63.0,-100.00,SSE,157,1.0,-999.0,88,-99.99,,,-99.99,0.000000,,2013-06-12 05:42:00,
2013-06-12 01:52:00,67.0,63.0,-100.00,SSE,157,1.0,-999.0,88,-99.99,,,-99.99,0.000000,,2013-06-12 05:52:00,
2013-06-12 02:00:00,64.0,63.0,-100.00,SW,225,1.0,-999.0,96,-99.99,,,-99.99,0.000000,,2013-06-12 06:00:00,
2013-06-12 03:00:00,63.0,63.0,-100.00,SSW,202,1.0,-999.0,101,-99.99,,,-99.99,0.000000,,2013-06-12 07:00:00,
2013-06-12 03:33:00,63.0,63.0,-100.00,SSW,202,1.0,-999.0,101,-99.99,,,-99.99,0.000000,,2013-06-12 07:33:00,
2013-06-12 03:43:00,63.0,63.0,-100.00,SSW,202,1.0,-999.0,101,-99.99,,,-99.99,0.000000,,2013-06-12 07:43:00,
2013-06-12 03:53:00,63.0,63.0,-100.00,SSW,202,1.0,-999.0,101,-99.99,,,-99.99,0.000000,,2013-06-12 07:53:00,
2013-06-12 04:00:00,63.0,63.0,-100.00,West,270,0.0,-999.0,101,-99.99,,,-99.99,0.000000,,2013-06-12 08:00:00,
2013-06-12 04:43:00,63.0,63.0,-100.00,West,270,0.0,-999.0,101,-99.99,,,-99.99,0.000000,,2013-06-12 08:43:00,
2013-06-12 04:53:00,63.0,63.0,-100.00,West,270,0.0,-999.0,101,-99.99,,,-99.99,0.000000,,2013-06-12 08:53:00,
2013-06-12 05:00:00,64.0,64.0,-100.00,ESE,112,1.0,-999.0,102,-99.99,,,-99.99,0.000000,,2013-06-12 09:00:00,
2013-06-12 05:43:00,64.0,64.0,-100.00,ESE,112,1.0,-999.0,102,-99.99,,,-99.99,0.000000,,2013-06-12 09:43:00,
2013-06-12 05:53:00,64.0,64.0,-100.00,ESE,112,1.0,-999.0,102,-99.99,,,-99.99,0.000000,,2013-06-12 09:53:00,
2013-06-12 06:00:00,65.0,65.0,-100.00,South,180,3.0,-999.0,100,-99.99,,,-99.99,0.000000,,2013-06-12 10:00:00,
2013-06-12 06:43:00,65.0,65.0,-100.00,South,180,3.0,-999.0,100,-99.99,,,-99.99,0.000000,,2013-06-12 10:43:00,
2013-06-12 06:53:00,65.0,65.0,-100.00,South,180,3.0,-999.0,100,-99.99,,,-99.99,0.000000,,2013-06-12 10:53:00,
2013-06-12 07:00:00,66.0,65.0,-100.00,East,90,2.0,-999.0,99,-99.99,,,-99.99,13.920000,,2013-06-12 11:00:00,
2013-06-12 07:43:00,66.0,65.0,-100.00,East,90,2.0,-999.0,99,-99.99,,,-99.99,13.920000,,2013-06-12 11:43:00,
2013-06-12 07:53:00,66.0,65.0,-100.00,East,90,2.0,-999.0,99,-99.99,,,-99.99,13.920000,,2013-06-12 11:53:00,
2013-06-12 08:00:00,66.0,65.0,-100.00,East,90,1.0,-999.0,99,-99.99,,,-99.99,59.160000,,2013-06-12 12:00:00,
2013-06-12 08:43:00,66.0,65.0,-100.00,East,90,1.0,-999.0,99,-99.99,,,-99.99,59.160000,,2013-06-12 12:43:00,
2013-06-12 08:53:00,66.0,65.0,-100.00,East,90,1.0,-999.0,99,-99.99,,,-99.99,59.160000,,2013-06-12 12:53:00,
2013-06-12 09:00:00,68.0,67.0,-100.00,SSE,157,2.0,-999.0,95,-99.99,,,-99.99,84.680000,,2013-06-12 13:00:00,
2013-06-12 09:43:00,68.0,67.0,-100.00,SSE,157,2.0,-999.0,95,-99.99,,,-99.99,84.680000,,2013-06-12 13:43:00,
2013-06-12 09:53:00,68.0,67.0,-100.00,SSE,157,2.0,-999.0,95,-99.99,,,-99.99,84.680000,,2013-06-12 13:53:00,
2013-06-12 10:00:00,69.0,68.0,-100.00,SSE,157,2.0,-999.0,94,-99.99,,,-99.99,107.879997,,2013-06-12 14:00:00,
2013-06-12 10:43:00,69.0,68.0,-100.00,SSE,157,2.0,-999.0,94,-99.99,,,-99.99,107.879997,,2013-06-12 14:43:00,
2013-06-12 10:53:00,69.0,68.0,-100.00,SSE,157,2.0,-999.0,94,-99.99,,,-99.99,107.879997,,2013-06-12 14:53:00,
2013-06-12 11:00:00,75.0,68.0,-100.00,WSW,247,2.0,-999.0,80,-99.99,,,-99.99,488.359985,,2013-06-12 15:00:00,
2013-06-12 11:43:00,75.0,68.0,-100.00,WSW,247,2.0,-999.0,80,-99.99,,,-99.99,488.359985,,2013-06-12 15:43:00,
2013-06-12 11:52:00,75.0,68.0,-100.00,WSW,247,2.0,-999.0,80,-99.99,,,-99.99,488.359985,,2013-06-12 15:52:00,
2013-06-12 13:00:00,78.0,68.0,-100.00,SSE,157,4.0,-999.0,70,-99.99,,,-99.99,327.119995,,2013-06-12 17:00:00,
2013-06-12 13:42:00,78.0,68.0,-100.00,SSE,157,4.0,-999.0,70,-99.99,,,-99.99,327.119995,,2013-06-12 17:42:00,
2013-06-12 13:52:00,78.0,68.0,-100.00,SSE,157,4.0,-999.0,70,-99.99,,,-99.99,327.119995,,2013-06-12 17:52:00,
2013-06-12 14:00:00,80.0,69.0,-100.00,SE,135,5.0,-999.0,69,-99.99,,,-99.99,535.919983,,2013-06-12 18:00:00,
2013-06-12 14:43:00,80.0,69.0,-100.00,SE,135,5.0,-999.0,69,-99.99,,,-99.99,535.919983,,2013-06-12 18:43:00,
2013-06-12 14:53:00,80.0,69.0,-100.00,SE,135,5.0,-999.0,69,-99.99,,,-99.99,535.919983,,2013-06-12 18:53:00,
2013-06-12 16:00:00,82.0,70.0,-100.00,South,180,3.0,-999.0,68,-99.99,,,-99.99,319.000000,,2013-06-12 20:00:00,
2013-06-12 16:43:00,82.0,70.0,-100.00,South,180,3.0,-999.0,68,-99.99,,,-99.99,319.000000,,2013-06-12 20:43:00,
2013-06-12 16:54:00,82.0,70.0,-100.00,South,180,3.0,-999.0,68,-99.99,,,-99.99,319.000000,,2013-06-12 20:54:00,
2013-06-12 17:00:00,84.0,71.0,-100.00,SW,225,2.0,-999.0,66,-99.99,,,-99.99,423.399994,,2013-06-12 21:00:00,
2013-06-12 17:43:00,84.0,71.0,-100.00,SW,225,2.0,-999.0,66,-99.99,,,-99.99,423.399994,,2013-06-12 21:43:00,
2013-06-12 17:53:00,84.0,71.0,-100.00,SW,225,2.0,-999.0,66,-99.99,,,-99.99,423.399994,,2013-06-12 21:53:00,
2013-06-12 18:00:00,83.0,72.0,-100.00,ESE,112,1.0,-999.0,70,-99.99,,,-99.99,269.119995,,2013-06-12 22:00:00,
2013-06-12 18:43:00,83.0,72.0,-100.00,ESE,112,1.0,-999.0,70,-99.99,,,-99.99,269.119995,,2013-06-12 22:43:00,
2013-06-12 18:52:00,83.0,72.0,-100.00,ESE,112,1.0,-999.0,70,-99.99,,,-99.99,269.119995,,2013-06-12 22:52:00,
2013-06-12 19:00:00,83.0,73.0,-100.00,East,90,2.0,-999.0,71,-99.99,,,-99.99,201.839996,,2013-06-12 23:00:00,
2013-06-12 19:32:00,83.0,73.0,-100.00,East,90,2.0,-999.0,71,-99.99,,,-99.99,201.839996,,2013-06-12 23:32:00,
2013-06-12 19:42:00,83.0,73.0,-100.00,East,90,2.0,-999.0,71,-99.99,,,-99.99,201.839996,,2013-06-12 23:42:00,
2013-06-12 19:53:00,83.0,73.0,-100.00,East,90,2.0,-999.0,71,-99.99,,,-99.99,201.839996,,2013-06-12 23:53:00,
2013-06-12 20:00:00,80.0,73.0,-100.00,ENE,67,1.0,-999.0,80,-99.99,,,-99.99,32.480000,,2013-06-13 00:00:00,
2013-06-12 20:33:00,80.0,73.0,-100.00,ENE,67,1.0,-999.0,80,-99.99,,,-99.99,32.480000,,2013-06-13 00:33:00,
2013-06-12 20:43:00,80.0,73.0,-100.00,ENE,67,1.0,-999.0,80,-99.99,,,-99.99,32.480000,,2013-06-13 00:43:00,
2013-06-12 20:52:00,80.0,73.0,-100.00,ENE,67,1.0,-999.0,80,-99.99,,,-99.99,32.480000,,2013-06-13 00:52:00,
2013-06-12 23:00:00,70.0,69.0,-100.00,WSW,247,14.0,-999.0,95,0.09,,,-99.99,0.000000,,2013-06-13 03:00:00,
2013-06-12 23:43:00,70.0,69.0,-100.00,WSW,247,14.0,-999.0,95,0.09,,,-99.99,0.000000,,2013-06-13 03:43:00,
2013-06-12 23:52:00,70.0,69.0,-100.00,WSW,247,14.0,-999.0,95,0.09,,,-99.99,0.000000,,2013-06-13 03:52:00,